Terug naar catalogus

STARLINK-31366

ActiefCommunicatieVLEO
NORAD 59403·PAYLOAD·🇺🇸 United States

Gelanceerd Apr 5, 2024 vanaf Cape Canaveral Space Force Station

Loading…

Volgende Passages (komende 24 uur)

TLE

VersSource: CelesTrak SupGP

Epoch: Sep 14, 2026, 20:41 UTC

1 59403C 24064F   26257.86229167  .00044950  00000+0  16283-2 0  2570
2 59403  43.0007  67.8440 0001385 277.6070 205.5875 15.27551125    19

Volg STARLINK-31366 in realtime met AllMySat

Download on the App Store